Regional Weather Roundup
Issued by NWS State College, PA

Home | Current Version | Previous Version | Text Only | Print | Product List | Glossary Off
Versions: 1 2 3 4 5 6 7 8 9 10 11 12 13 14 15 16 17 18 19 20 21 22 23 24 25 26 27 28 29 30 31 32 33 34 35 36 37 38 39 40 41 42 43 44 45 46 47 48 49 50

000
ASUS41 KCTP 210410
RWRCTP

REGIONAL WEATHER ROUNDUP
NATIONAL WEATHER SERVICE STATE COLLEGE PA
1200 AM EDT SUN SEP 21 2014

Note: "fair" indicates few or no clouds below 12,000 feet with no
significant weather and/or obstructions to visibility.

* = STATION THAT DOES NOT REPORT PRECIPITATION /E.G. RAIN...SNOW...ETC/
    THUNDER OR FOG.

PAZ002>004-007>009-013>016-020>023-029>032-210500-
WESTERN PENNSYLVANIA

CITY           SKY/WX    TMP DP  RH WIND       PRES   REMARKS
ERIE           MOCLDY    72  60  66 S17G25    29.84F
MEADVILLE      MOCLDY    68  60  75 S9        29.91F
FRANKLIN*      MOCLDY    66  59  77 S13       29.95F
NEW CASTLE     NOT AVBL
BEAVER COUNTY  NOT AVBL
BUTLER*        PTCLDY    66  61  82 S9        29.98F
PITTSBURGH INT PTCLDY    67  61  81 S7        29.96F
PITTSBURGH     CLEAR     67  59  75 S7        29.98F
INDIANA*       PTCLDY    63  59  88 CALM      30.03F
LATROBE        CLEAR     63  61  94 SW3       30.00F
WASHINGTON CO* CLEAR     64  61  88 S5        29.99F
$$

PAZ004>006-010>012-017>019-024>028-033>037-041-042-045-046-049>053-210500-
CENTRAL PENNSYLVANIA

CITY           SKY/WX    TMP DP  RH WIND       PRES   REMARKS
BRADFORD       CLOUDY    64  58  80 VRB5      29.98F
DUBOIS         MOCLDY    64  58  80 VRB7      29.99F
CLEARFIELD     MOCLDY    65  57  75 SW5       30.01F
JOHNSTOWN      CLEAR     63  54  72 S8        30.04F
ALTOONA        MOCLDY    66  56  70 S14G21    30.05F
STATE COLLEGE  MOCLDY    65  56  72 S7        30.03F
WILLIAMSPORT   MOCLDY    70  56  61 S16G25    30.00S
SELINSGROVE    MOCLDY    67  60  78 S8        30.05S
FT INDIANTOWN  CLEAR     57  57 100 NE1       30.08S FOG
CAPITAL CITY   CLEAR     66  60  81 CALM      30.06F
HARRISBURG     CLEAR     65  60  84 CALM      30.06S
YORK           CLEAR     56  54  93 CALM      30.07F
$$

PAZ038>040-043-044-047-048-054-055-060>062-067>071-210500-
EASTERN PENNSYLVANIA

CITY           SKY/WX    TMP DP  RH WIND       PRES   REMARKS
SCRANTON       CLEAR     64  57  78 VRB3      30.07S
MOUNT POCONO   PTCLDY    56  53  90 S3        30.10S
ALLENTOWN      MOCLDY    63  58  83 NW3       30.08S
QUAKERTOWN*    CLEAR     63  59  88 CALM      30.09R
READING        CLEAR     63  58  83 NW3       30.07R
LANCASTER      CLEAR     63  60  90 CALM      30.07S
COATESVILLE    CLEAR     63  63 100 SE3       30.08S FOG
POTTSTOWN      CLEAR     64  60  87 CALM      30.08S
BLUE BELL      MOCLDY    63  61  94 CALM      30.07R
DOYLESTOWN     CLOUDY    63  62  97 CALM      30.07S
WILLOW GROVE   NOT AVBL
NORTH PHILA    CLOUDY    68  61  78 CALM      30.07F
PHILADELPHIA   MOCLDY    69  63  81 CALM      30.06S
$$



USA.gov is the U.S. government's official web portal to all federal, state and local government web resources and services.